Hourly Weather Kozubivka

Today, 27 October, Tuesday

Time Temperature Precipitation Wind Pressure Humidity
00:00 +9°C° 0 mm 5 mps 754 mmHg 60%
01:00 +9°C° 0 mm 5 mps 754 mmHg 60%
02:00 +9°C° 0 mm 5 mps 754 mmHg 60%
03:00 +10°C° 0 mm 4 mps 754 mmHg 61%
04:00 +10°C° 0 mm 4 mps 754 mmHg 61%
05:00 +10°C° 0 mm 4 mps 754 mmHg 62%
06:00 +10°C° 0 mm 4 mps 754 mmHg 62%
07:00 +10°C° 0 mm 4 mps 755 mmHg 62%
08:00 +9°C° 0 mm 5 mps 755 mmHg 62%
09:00 +10°C° 0 mm 5 mps 755 mmHg 59%
10:00 +13°C° 0 mm 5 mps 755 mmHg 56%
11:00 +14°C° 0 mm 5 mps 755 mmHg 52%
12:00 +14°C° 0 mm 5 mps 755 mmHg 51%
13:00 +15°C° 0 mm 5 mps 755 mmHg 50%
14:00 +16°C° 0 mm 6 mps 754 mmHg 49%
15:00 +15°C° 0 mm 5 mps 754 mmHg 53%
16:00 +14°C° 0 mm 4 mps 755 mmHg 56%
17:00 +13°C° 0 mm 4 mps 755 mmHg 59%
18:00 +12°C° 0 mm 3 mps 755 mmHg 61%
19:00 +12°C° 0 mm 3 mps 755 mmHg 62%
20:00 +11°C° 0 mm 3 mps 755 mmHg 64%
21:00 +11°C° 0 mm 3 mps 755 mmHg 64%
22:00 +10°C° 0 mm 3 mps 755 mmHg 63%
23:00 +10°C° 0 mm 3 mps 755 mmHg 63%

Tomorrow, 28 October, Wednesday

Time Temperature Precipitation Wind Pressure Humidity
00:00 +10°C° 0 mm 3 mps 755 mmHg 62%
01:00 +9°C° 0 mm 3 mps 755 mmHg 61%
02:00 +9°C° 0 mm 3 mps 756 mmHg 60%
03:00 +8°C° 0 mm 3 mps 755 mmHg 59%
04:00 +8°C° 0 mm 3 mps 755 mmHg 58%
05:00 +7°C° 0 mm 4 mps 755 mmHg 57%
06:00 +7°C° 0 mm 4 mps 755 mmHg 57%
07:00 +7°C° 0 mm 4 mps 756 mmHg 56%
08:00 +8°C° 0 mm 4 mps 756 mmHg 56%
09:00 +10°C° 0 mm 4 mps 756 mmHg 53%
10:00 +12°C° 0 mm 4 mps 756 mmHg 51%
11:00 +13°C° 0 mm 3 mps 756 mmHg 48%
12:00 +14°C° 0 mm 3 mps 755 mmHg 48%
13:00 +16°C° 0 mm 3 mps 755 mmHg 47%
14:00 +16°C° 0 mm 3 mps 755 mmHg 47%
15:00 +14°C° 0 mm 3 mps 755 mmHg 52%
16:00 +13°C° 0 mm 3 mps 755 mmHg 58%
17:00 +11°C° 0 mm 3 mps 755 mmHg 63%
18:00 +11°C° 0 mm 3 mps 755 mmHg 67%
19:00 +10°C° 0 mm 3 mps 755 mmHg 70%
20:00 +9°C° 0 mm 3 mps 755 mmHg 74%
21:00 +9°C° 0 mm 3 mps 755 mmHg 77%
22:00 +8°C° 0 mm 3 mps 755 mmHg 81%
23:00 +8°C° 0 mm 3 mps 755 mmHg 84%

Day after tomorrow, 29 October, Thursday

Time Temperature Precipitation Wind Pressure Humidity
00:00 +7°C° 0 mm 3 mps 755 mmHg 86%
01:00 +7°C° 0 mm 3 mps 754 mmHg 89%
02:00 +7°C° 0 mm 2 mps 754 mmHg 91%
03:00 +7°C° 0 mm 2 mps 754 mmHg 92%
04:00 +6°C° 0 mm 2 mps 754 mmHg 92%
05:00 +5°C° 0 mm 3 mps 754 mmHg 93%
06:00 +7°C° 0 mm 3 mps 754 mmHg 90%
07:00 +7°C° 0 mm 3 mps 754 mmHg 86%
08:00 +7°C° 0 mm 3 mps 754 mmHg 83%
09:00 +9°C° 0 mm 3 mps 754 mmHg 75%
10:00 +10°C° 0 mm 3 mps 753 mmHg 68%
11:00 +12°C° 0 mm 3 mps 753 mmHg 61%
12:00 +13°C° 0 mm 2 mps 753 mmHg 59%
13:00 +14°C° 0 mm 2 mps 753 mmHg 57%
14:00 +15°C° 0 mm 2 mps 752 mmHg 55%
15:00 +14°C° 0 mm 2 mps 752 mmHg 59%
16:00 +13°C° 0 mm 1 mps 752 mmHg 62%
17:00 +12°C° 0 mm 1 mps 752 mmHg 65%
18:00 +12°C° 0 mm 1 mps 752 mmHg 66%
19:00 +12°C° 0 mm 1 mps 752 mmHg 67%
20:00 +12°C° 0 mm 1 mps 752 mmHg 67%
21:00 +11°C° 0.1 mm 1 mps 751 mmHg 70%
22:00 +11°C° 0.1 mm 1 mps 751 mmHg 73%
23:00 +11°C° 0.1 mm 1 mps 751 mmHg 75%

30 October, Friday

Time Temperature Precipitation Wind Pressure Humidity
00:00 +11°C° 0.3 mm 1 mps 751 mmHg 78%
01:00 +11°C° 0.3 mm 1 mps 750 mmHg 81%
02:00 +10°C° 0.3 mm 1 mps 750 mmHg 83%
03:00 +10°C° 0.3 mm 1 mps 750 mmHg 85%
04:00 +10°C° 0.3 mm 1 mps 750 mmHg 86%
05:00 +10°C° 0.3 mm 1 mps 750 mmHg 88%
06:00 +10°C° 0.3 mm 1 mps 750 mmHg 88%
07:00 +10°C° 0.3 mm 1 mps 750 mmHg 89%
08:00 +10°C° 0.3 mm 1 mps 750 mmHg 89%
09:00 +10°C° 0.2 mm 1 mps 750 mmHg 89%
10:00 +10°C° 0.2 mm 1 mps 750 mmHg 89%
11:00 +10°C° 0.2 mm 1 mps 750 mmHg 89%
12:00 +11°C° 0.2 mm 1 mps 750 mmHg 89%
13:00 +11°C° 0.2 mm 1 mps 750 mmHg 88%
14:00 +11°C° 0.2 mm 1 mps 749 mmHg 88%
15:00 +11°C° 0 mm 1 mps 750 mmHg 88%
16:00 +10°C° 0 mm 1 mps 750 mmHg 89%
17:00 +10°C° 0 mm 1 mps 750 mmHg 89%
18:00 +10°C° 0 mm 1 mps 750 mmHg 89%
19:00 +10°C° 0 mm 1 mps 750 mmHg 89%
20:00 +9°C° 0 mm 0 mps 750 mmHg 88%
21:00 +10°C° 0 mm 1 mps 750 mmHg 89%
22:00 +10°C° 0 mm 1 mps 750 mmHg 89%
23:00 +9°C° 0 mm 1 mps 750 mmHg 89%

31 October, Saturday

Time Temperature Precipitation Wind Pressure Humidity
00:00 +9°C° 0 mm 1 mps 750 mmHg 90%
01:00 +8°C° 0 mm 2 mps 750 mmHg 91%
02:00 +7°C° 0 mm 2 mps 751 mmHg 92%
03:00 +7°C° 0 mm 2 mps 751 mmHg 93%
04:00 +7°C° 0 mm 2 mps 751 mmHg 93%
05:00 +7°C° 0 mm 2 mps 751 mmHg 94%
06:00 +7°C° 0 mm 2 mps 751 mmHg 92%
07:00 +7°C° 0 mm 2 mps 751 mmHg 90%
08:00 +7°C° 0 mm 2 mps 751 mmHg 89%
09:00 +9°C° 0 mm 2 mps 751 mmHg 84%
10:00 +10°C° 0 mm 2 mps 752 mmHg 79%
11:00 +11°C° 0 mm 3 mps 752 mmHg 75%
12:00 +11°C° 0 mm 3 mps 752 mmHg 74%
13:00 +11°C° 0 mm 3 mps 752 mmHg 74%
14:00 +11°C° 0 mm 3 mps 752 mmHg 74%
15:00 +11°C° 0 mm 4 mps 752 mmHg 76%
16:00 +11°C° 0 mm 4 mps 752 mmHg 78%
17:00 +10°C° 0 mm 4 mps 752 mmHg 80%
18:00 +10°C° 0 mm 4 mps 752 mmHg 82%
19:00 +10°C° 0 mm 4 mps 752 mmHg 83%
20:00 +8°C° 0 mm 4 mps 752 mmHg 85%
21:00 +8°C° 0.1 mm 4 mps 752 mmHg 86%
22:00 +8°C° 0.1 mm 5 mps 752 mmHg 87%
23:00 +8°C° 0.1 mm 5 mps 752 mmHg 88%

1 November, Sunday

Time Temperature Precipitation Wind Pressure Humidity
00:00 +8°C° 1.3 mm 5 mps 752 mmHg 88%
01:00 +9°C° 1.3 mm 5 mps 752 mmHg 89%
02:00 +9°C° 1.3 mm 5 mps 752 mmHg 89%
03:00 +9°C° 0.2 mm 5 mps 752 mmHg 89%
04:00 +9°C° 0.2 mm 5 mps 752 mmHg 89%
05:00 +10°C° 0.2 mm 5 mps 751 mmHg 89%
06:00 +10°C° 0.1 mm 5 mps 752 mmHg 89%
07:00 +10°C° 0.1 mm 5 mps 752 mmHg 88%
08:00 +10°C° 0.1 mm 5 mps 752 mmHg 88%
09:00 +12°C° 0.1 mm 5 mps 752 mmHg 81%
10:00 +13°C° 0.1 mm 5 mps 752 mmHg 74%
11:00 +14°C° 0.1 mm 5 mps 752 mmHg 67%
12:00 +14°C° 0 mm 5 mps 752 mmHg 65%
13:00 +14°C° 0 mm 5 mps 752 mmHg 64%
14:00 +15°C° 0 mm 4 mps 752 mmHg 62%
15:00 +14°C° 0 mm 4 mps 752 mmHg 65%
16:00 +13°C° 0 mm 3 mps 752 mmHg 68%
17:00 +12°C° 0 mm 3 mps 752 mmHg 71%
18:00 +12°C° 0 mm 3 mps 752 mmHg 73%
19:00 +11°C° 0 mm 3 mps 753 mmHg 75%
20:00 +11°C° 0 mm 3 mps 753 mmHg 77%
21:00 +11°C° 0.3 mm 3 mps 753 mmHg 81%
22:00 +11°C° 0.3 mm 3 mps 753 mmHg 85%
23:00 +11°C° 0.3 mm 3 mps 753 mmHg 90%
Show more